iso_date,epoch_date,Year,Hour,Min,DOY,POS_DOY,Lat,Lon,BP,Ts,Ta,has_bp,has_ts,has_ta,BuoyID,Buoy_Type,Buoy_Owner,Logistics,Hemisphere
2019-10-09T05:31:03Z,1570599063,2019,5,31,282.2299,282.2299,84.9104,135.9856,-999.00,-6.4,-999.0,no,yes,no,300234068210190,SVP,PRIC,MOSAiC,North
2019-10-09T06:00:00Z,1570600800,2019,6,0,282.25,282.25,84.9128,135.8634,-999.00,-7.1,-999.0,no,yes,no,300234068210190,SVP,PRIC,MOSAiC,North
2019-10-09T07:00:02Z,1570604403,2019,7,0,282.2917,282.2917,84.9122,135.857,-999.00,-6.4,-999.0,no,yes,no,300234068210190,SVP,PRIC,MOSAiC,North
2019-10-09T07:59:57Z,1570607997,2019,8,0,282.3333,282.3333,84.9112,135.8492,-999.00,-6.5,-999.0,no,yes,no,300234068210190,SVP,PRIC,MOSAiC,North
2019-10-09T09:00:00Z,1570611600,2019,9,0,282.375,282.375,84.9096,135.8386,-999.00,-6.4,-999.0,no,yes,no,300234068210190,SVP,PRIC,MOSAiC,North
2019-10-09T10:00:02Z,1570615203,2019,10,0,282.4167,282.4167,84.9084,135.8238,-999.00,-6.2,-999.0,no,yes,no,300234068210190,SVP,PRIC,MOSAiC,North
2019-10-09T10:59:57Z,1570618797,2019,11,0,282.4583,282.4583,84.9074,135.8066,-999.00,-6.5,-999.0,no,yes,no,300234068210190,SVP,PRIC,MOSAiC,North
2019-10-09T12:00:00Z,1570622400,2019,12,0,282.5,282.5,84.9066,135.7908,-999.00,-6.8,-999.0,no,yes,no,300234068210190,SVP,PRIC,MOSAiC,North
2019-10-09T13:00:02Z,1570626003,2019,13,0,282.5417,282.5417,84.9062,135.7762,-999.00,-6.7,-999.0,no,yes,no,300234068210190,SVP,PRIC,MOSAiC,North
2019-10-09T13:59:57Z,1570629597,2019,14,0,282.5833,282.5833,84.9062,135.7636,-999.00,-6.5,-999.0,no,yes,no,300234068210190,SVP,PRIC,MOSAiC,North
2019-10-09T15:00:00Z,1570633200,2019,15,0,282.625,282.625,84.9066,135.7538,-999.00,-6.2,-999.0,no,yes,no,300234068210190,SVP,PRIC,MOSAiC,North
2019-10-09T16:00:02Z,1570636803,2019,16,0,282.6667,282.6667,84.9074,135.746,-999.00,-5.9,-999.0,no,yes,no,300234068210190,SVP,PRIC,MOSAiC,North
2019-10-09T16:59:57Z,1570640397,2019,17,0,282.7083,282.7083,84.9086,135.7386,-999.00,-6.2,-999.0,no,yes,no,300234068210190,SVP,PRIC,MOSAiC,North
2019-10-09T18:00:00Z,1570644000,2019,18,0,282.75,282.75,84.9098,135.7298,-999.00,-6.5,-999.0,no,yes,no,300234068210190,SVP,PRIC,MOSAiC,North
2019-10-09T19:00:02Z,1570647603,2019,19,0,282.7917,282.7917,84.9112,135.718,-999.00,-6.9,-999.0,no,yes,no,300234068210190,SVP,PRIC,MOSAiC,North
2019-10-09T19:59:57Z,1570651197,2019,20,0,282.8333,282.8333,84.9122,135.7002,-999.00,-7.2,-999.0,no,yes,no,300234068210190,SVP,PRIC,MOSAiC,North
2019-10-09T21:00:00Z,1570654800,2019,21,0,282.875,282.875,84.9132,135.6752,-999.00,-7.7,-999.0,no,yes,no,300234068210190,SVP,PRIC,MOSAiC,North
2019-10-09T22:00:02Z,1570658403,2019,22,0,282.9167,282.9167,84.914,135.6422,-999.00,-8.3,-999.0,no,yes,no,300234068210190,SVP,PRIC,MOSAiC,North
2019-10-09T22:59:57Z,1570661997,2019,23,0,282.9583,282.9583,84.9148,135.6024,-999.00,-8.4,-999.0,no,yes,no,300234068210190,SVP,PRIC,MOSAiC,North
2019-10-10T00:00:00Z,1570665600,2019,0,0,283.0,283.0,84.9158,135.5568,-999.00,-8.5,-999.0,no,yes,no,300234068210190,SVP,PRIC,MOSAiC,North
2019-10-10T01:00:02Z,1570669203,2019,1,0,283.0417,283.0417,84.917,135.5078,-999.00,-8.2,-999.0,no,yes,no,300234068210190,SVP,PRIC,MOSAiC,North
2019-10-10T01:59:57Z,1570672797,2019,2,0,283.0833,283.0833,84.9184,135.4576,-999.00,-7.9,-999.0,no,yes,no,300234068210190,SVP,PRIC,MOSAiC,North
2019-10-10T03:00:00Z,1570676400,2019,3,0,283.125,283.125,84.92,135.4072,-999.00,-7.4,-999.0,no,yes,no,300234068210190,SVP,PRIC,MOSAiC,North
2019-10-10T04:00:02Z,1570680003,2019,4,0,283.1667,283.1667,84.9276,135.3458,-999.00,-7.2,-999.0,no,yes,no,300234068210190,SVP,PRIC,MOSAiC,North
2019-10-10T04:59:57Z,1570683597,2019,5,0,283.2083,283.2083,84.9292,135.3044,-999.00,-6.9,-999.0,no,yes,no,300234068210190,SVP,PRIC,MOSAiC,North
2019-10-10T06:00:00Z,1570687200,2019,6,0,283.25,283.25,84.9302,135.2692,-999.00,-6.6,-999.0,no,yes,no,300234068210190,SVP,PRIC,MOSAiC,North
2019-10-10T07:00:02Z,1570690803,2019,7,0,283.2917,283.2917,84.9304,135.241,-999.00,-6.5,-999.0,no,yes,no,300234068210190,SVP,PRIC,MOSAiC,North
2019-10-10T07:59:57Z,1570694397,2019,8,0,283.3333,283.3333,84.93,135.2196,-999.00,-6.5,-999.0,no,yes,no,300234068210190,SVP,PRIC,MOSAiC,North
2019-10-10T09:00:00Z,1570698000,2019,9,0,283.375,283.375,84.929,135.1956,-999.00,-6.6,-999.0,no,yes,no,300234068210190,SVP,PRIC,MOSAiC,North
2019-10-10T10:00:02Z,1570701603,2019,10,0,283.4167,283.4167,84.9276,135.1712,-999.00,-6.9,-999.0,no,yes,no,300234068210190,SVP,PRIC,MOSAiC,North
2019-10-10T10:59:57Z,1570705197,2019,11,0,283.4583,283.4583,84.926,135.144,-999.00,-6.9,-999.0,no,yes,no,300234068210190,SVP,PRIC,MOSAiC,North
2019-10-10T12:00:00Z,1570708800,2019,12,0,283.5,283.5,84.9246,135.1176,-999.00,-6.9,-999.0,no,yes,no,300234068210190,SVP,PRIC,MOSAiC,North
2019-10-10T13:00:02Z,1570712403,2019,13,0,283.5417,283.5417,84.9232,135.0946,-999.00,-7.0,-999.0,no,yes,no,300234068210190,SVP,PRIC,MOSAiC,North
2019-10-10T13:59:57Z,1570715997,2019,14,0,283.5833,283.5833,84.922,135.0772,-999.00,-6.9,-999.0,no,yes,no,300234068210190,SVP,PRIC,MOSAiC,North
2019-10-10T15:00:00Z,1570719600,2019,15,0,283.625,283.625,84.921,135.069,-999.00,-7.2,-999.0,no,yes,no,300234068210190,SVP,PRIC,MOSAiC,North
2019-10-10T16:00:02Z,1570723203,2019,16,0,283.6667,283.6667,84.9204,135.0704,-999.00,-7.5,-999.0,no,yes,no,300234068210190,SVP,PRIC,MOSAiC,North
2019-10-10T16:59:57Z,1570726797,2019,17,0,283.7083,283.7083,84.9194,135.081,-999.00,-7.9,-999.0,no,yes,no,300234068210190,SVP,PRIC,MOSAiC,North
2019-10-10T18:00:00Z,1570730400,2019,18,0,283.75,283.75,84.9184,135.1042,-999.00,-8.2,-999.0,no,yes,no,300234068210190,SVP,PRIC,MOSAiC,North
2019-10-10T19:00:02Z,1570734003,2019,19,0,283.7917,283.7917,84.9168,135.136,-999.00,-8.2,-999.0,no,yes,no,300234068210190,SVP,PRIC,MOSAiC,North
2019-10-10T19:59:57Z,1570737597,2019,20,0,283.8333,283.8333,84.9144,135.1708,-999.00,-8.1,-999.0,no,yes,no,300234068210190,SVP,PRIC,MOSAiC,North
2019-10-10T21:00:00Z,1570741200,2019,21,0,283.875,283.875,84.9114,135.2094,-999.00,-8.1,-999.0,no,yes,no,300234068210190,SVP,PRIC,MOSAiC,North
2019-10-10T22:00:02Z,1570744803,2019,22,0,283.9167,283.9167,84.9078,135.2482,-999.00,-8.1,-999.0,no,yes,no,300234068210190,SVP,PRIC,MOSAiC,North
2019-10-10T22:59:57Z,1570748397,2019,23,0,283.9583,283.9583,84.9032,135.2852,-999.00,-8.2,-999.0,no,yes,no,300234068210190,SVP,PRIC,MOSAiC,North
2019-10-11T00:00:00Z,1570752000,2019,0,0,284.0,284.0,84.8986,135.3158,-999.00,-8.3,-999.0,no,yes,no,300234068210190,SVP,PRIC,MOSAiC,North
2019-10-11T01:00:02Z,1570755603,2019,1,0,284.0417,284.0417,84.8938,135.34,-999.00,-8.5,-999.0,no,yes,no,300234068210190,SVP,PRIC,MOSAiC,North
2019-10-11T01:59:57Z,1570759197,2019,2,0,284.0833,284.0833,84.8892,135.3592,-999.00,-8.7,-999.0,no,yes,no,300234068210190,SVP,PRIC,MOSAiC,North
2019-10-11T03:00:00Z,1570762800,2019,3,0,284.125,284.125,84.885,135.3744,-999.00,-8.9,-999.0,no,yes,no,300234068210190,SVP,PRIC,MOSAiC,North
2019-10-11T04:00:02Z,1570766403,2019,4,0,284.1667,284.1667,84.8816,135.3904,-999.00,-9.1,-999.0,no,yes,no,300234068210190,SVP,PRIC,MOSAiC,North
2019-10-11T04:59:57Z,1570769997,2019,5,0,284.2083,284.2083,84.879,135.41,-999.00,-9.2,-999.0,no,yes,no,300234068210190,SVP,PRIC,MOSAiC,North
2019-10-11T06:00:00Z,1570773600,2019,6,0,284.25,284.25,84.8762,135.4356,-999.00,-9.2,-999.0,no,yes,no,300234068210190,SVP,PRIC,MOSAiC,North
2019-10-11T07:00:02Z,1570777203,2019,7,0,284.2917,284.2917,84.8718,135.4712,-999.00,-9.2,-999.0,no,yes,no,300234068210190,SVP,PRIC,MOSAiC,North
2019-10-11T07:59:57Z,1570780797,2019,8,0,284.3333,284.3333,84.8666,135.5012,-999.00,-9.2,-999.0,no,yes,no,300234068210190,SVP,PRIC,MOSAiC,North
2019-10-11T09:00:00Z,1570784400,2019,9,0,284.375,284.375,84.8616,135.5202,-999.00,-9.2,-999.0,no,yes,no,300234068210190,SVP,PRIC,MOSAiC,North
2019-10-11T10:00:02Z,1570788003,2019,10,0,284.4167,284.4167,84.857,135.5298,-999.00,-9.1,-999.0,no,yes,no,300234068210190,SVP,PRIC,MOSAiC,North
2019-10-11T10:59:57Z,1570791597,2019,11,0,284.4583,284.4583,84.853,135.534,-999.00,-9.0,-999.0,no,yes,no,300234068210190,SVP,PRIC,MOSAiC,North
2019-10-11T12:00:00Z,1570795200,2019,12,0,284.5,284.5,84.8498,135.5362,-999.00,-8.8,-999.0,no,yes,no,300234068210190,SVP,PRIC,MOSAiC,North
2019-10-11T13:00:02Z,1570798803,2019,13,0,284.5417,284.5417,84.8474,135.5408,-999.00,-8.6,-999.0,no,yes,no,300234068210190,SVP,PRIC,MOSAiC,North
2019-10-11T13:59:57Z,1570802397,2019,14,0,284.5833,284.5833,84.8454,135.5512,-999.00,-8.3,-999.0,no,yes,no,300234068210190,SVP,PRIC,MOSAiC,North
2019-10-11T15:00:00Z,1570806000,2019,15,0,284.625,284.625,84.844,135.57,-999.00,-8.1,-999.0,no,yes,no,300234068210190,SVP,PRIC,MOSAiC,North
2019-10-11T16:00:02Z,1570809603,2019,16,0,284.6667,284.6667,84.8428,135.594,-999.00,-7.7,-999.0,no,yes,no,300234068210190,SVP,PRIC,MOSAiC,North
2019-10-11T16:59:57Z,1570813197,2019,17,0,284.7083,284.7083,84.8418,135.622,-999.00,-7.5,-999.0,no,yes,no,300234068210190,SVP,PRIC,MOSAiC,North
2019-10-11T18:00:00Z,1570816800,2019,18,0,284.75,284.75,84.8406,135.653,-999.00,-7.5,-999.0,no,yes,no,300234068210190,SVP,PRIC,MOSAiC,North
2019-10-11T19:00:02Z,1570820403,2019,19,0,284.7917,284.7917,84.839,135.6796,-999.00,-7.5,-999.0,no,yes,no,300234068210190,SVP,PRIC,MOSAiC,North
2019-10-11T19:59:57Z,1570823997,2019,20,0,284.8333,284.8333,84.8374,135.7004,-999.00,-7.5,-999.0,no,yes,no,300234068210190,SVP,PRIC,MOSAiC,North
2019-10-11T21:00:00Z,1570827600,2019,21,0,284.875,284.875,84.8362,135.7148,-999.00,-7.5,-999.0,no,yes,no,300234068210190,SVP,PRIC,MOSAiC,North
2019-10-11T22:00:02Z,1570831203,2019,22,0,284.9167,284.9167,84.8356,135.7202,-999.00,-7.4,-999.0,no,yes,no,300234068210190,SVP,PRIC,MOSAiC,North
2019-10-11T22:59:57Z,1570834797,2019,23,0,284.9583,284.9583,84.8358,135.7176,-999.00,-7.3,-999.0,no,yes,no,300234068210190,SVP,PRIC,MOSAiC,North
2019-10-12T00:00:00Z,1570838400,2019,0,0,285.0,285.0,84.8372,135.7104,-999.00,-7.1,-999.0,no,yes,no,300234068210190,SVP,PRIC,MOSAiC,North
2019-10-12T01:00:02Z,1570842003,2019,1,0,285.0417,285.0417,84.84,135.7048,-999.00,-7.0,-999.0,no,yes,no,300234068210190,SVP,PRIC,MOSAiC,North
2019-10-12T01:59:57Z,1570845597,2019,2,0,285.0833,285.0833,84.8436,135.7046,-999.00,-6.8,-999.0,no,yes,no,300234068210190,SVP,PRIC,MOSAiC,North
2019-10-12T03:00:00Z,1570849200,2019,3,0,285.125,285.125,84.8476,135.7084,-999.00,-6.6,-999.0,no,yes,no,300234068210190,SVP,PRIC,MOSAiC,North
2019-10-12T04:00:02Z,1570852803,2019,4,0,285.1667,285.1667,84.8518,135.7126,-999.00,-6.5,-999.0,no,yes,no,300234068210190,SVP,PRIC,MOSAiC,North
2019-10-12T04:59:57Z,1570856397,2019,5,0,285.2083,285.2083,84.8554,135.7122,-999.00,-6.5,-999.0,no,yes,no,300234068210190,SVP,PRIC,MOSAiC,North
2019-10-12T06:00:00Z,1570860000,2019,6,0,285.25,285.25,84.8586,135.7076,-999.00,-6.4,-999.0,no,yes,no,300234068210190,SVP,PRIC,MOSAiC,North
2019-10-12T07:00:02Z,1570863603,2019,7,0,285.2917,285.2917,84.8608,135.6982,-999.00,-6.4,-999.0,no,yes,no,300234068210190,SVP,PRIC,MOSAiC,North
2019-10-12T07:59:57Z,1570867197,2019,8,0,285.3333,285.3333,84.8624,135.6824,-999.00,-6.3,-999.0,no,yes,no,300234068210190,SVP,PRIC,MOSAiC,North
2019-10-12T09:00:00Z,1570870800,2019,9,0,285.375,285.375,84.8634,135.658,-999.00,-6.3,-999.0,no,yes,no,300234068210190,SVP,PRIC,MOSAiC,North
2019-10-12T10:00:02Z,1570874403,2019,10,0,285.4167,285.4167,84.8642,135.6244,-999.00,-6.6,-999.0,no,yes,no,300234068210190,SVP,PRIC,MOSAiC,North
2019-10-12T10:59:57Z,1570877997,2019,11,0,285.4583,285.4583,84.865,135.5806,-999.00,-6.8,-999.0,no,yes,no,300234068210190,SVP,PRIC,MOSAiC,North
2019-10-12T12:00:00Z,1570881600,2019,12,0,285.5,285.5,84.8662,135.5308,-999.00,-7.1,-999.0,no,yes,no,300234068210190,SVP,PRIC,MOSAiC,North
2019-10-12T13:00:02Z,1570885203,2019,13,0,285.5417,285.5417,84.8676,135.4798,-999.00,-7.5,-999.0,no,yes,no,300234068210190,SVP,PRIC,MOSAiC,North
2019-10-12T13:59:57Z,1570888797,2019,14,0,285.5833,285.5833,84.8692,135.4324,-999.00,-7.8,-999.0,no,yes,no,300234068210190,SVP,PRIC,MOSAiC,North
2019-10-12T15:00:00Z,1570892400,2019,15,0,285.625,285.625,84.8708,135.3936,-999.00,-8.0,-999.0,no,yes,no,300234068210190,SVP,PRIC,MOSAiC,North
2019-10-12T16:00:02Z,1570896003,2019,16,0,285.6667,285.6667,84.872,135.3632,-999.00,-8.2,-999.0,no,yes,no,300234068210190,SVP,PRIC,MOSAiC,North
2019-10-12T16:59:57Z,1570899597,2019,17,0,285.7083,285.7083,84.8728,135.3394,-999.00,-8.4,-999.0,no,yes,no,300234068210190,SVP,PRIC,MOSAiC,North
2019-10-12T18:00:00Z,1570903200,2019,18,0,285.75,285.75,84.8728,135.3178,-999.00,-8.6,-999.0,no,yes,no,300234068210190,SVP,PRIC,MOSAiC,North
2019-10-12T19:00:02Z,1570906803,2019,19,0,285.7917,285.7917,84.8722,135.295,-999.00,-8.9,-999.0,no,yes,no,300234068210190,SVP,PRIC,MOSAiC,North
2019-10-12T19:59:57Z,1570910397,2019,20,0,285.8333,285.8333,84.8712,135.266,-999.00,-9.0,-999.0,no,yes,no,300234068210190,SVP,PRIC,MOSAiC,North
2019-10-12T21:00:00Z,1570914000,2019,21,0,285.875,285.875,84.87,135.2278,-999.00,-9.1,-999.0,no,yes,no,300234068210190,SVP,PRIC,MOSAiC,North
2019-10-12T22:00:02Z,1570917603,2019,22,0,285.9167,285.9167,84.869,135.1808,-999.00,-9.1,-999.0,no,yes,no,300234068210190,SVP,PRIC,MOSAiC,North
2019-10-12T22:59:57Z,1570921197,2019,23,0,285.9583,285.9583,84.8684,135.1302,-999.00,-8.9,-999.0,no,yes,no,300234068210190,SVP,PRIC,MOSAiC,North
2019-10-13T00:00:00Z,1570924800,2019,0,0,286.0,286.0,84.8682,135.0792,-999.00,-8.6,-999.0,no,yes,no,300234068210190,SVP,PRIC,MOSAiC,North
2019-10-13T01:00:02Z,1570928403,2019,1,0,286.0417,286.0417,84.8682,135.0294,-999.00,-8.6,-999.0,no,yes,no,300234068210190,SVP,PRIC,MOSAiC,North
2019-10-13T01:59:57Z,1570931997,2019,2,0,286.0833,286.0833,84.8684,134.9852,-999.00,-8.9,-999.0,no,yes,no,300234068210190,SVP,PRIC,MOSAiC,North
2019-10-13T03:00:00Z,1570935600,2019,3,0,286.125,286.125,84.8682,134.9486,-999.00,-9.5,-999.0,no,yes,no,300234068210190,SVP,PRIC,MOSAiC,North
2019-10-13T04:00:02Z,1570939203,2019,4,0,286.1667,286.1667,84.8678,134.9186,-999.00,-10.2,-999.0,no,yes,no,300234068210190,SVP,PRIC,MOSAiC,North
2019-10-13T04:59:57Z,1570942797,2019,5,0,286.2083,286.2083,84.8666,134.8924,-999.00,-10.5,-999.0,no,yes,no,300234068210190,SVP,PRIC,MOSAiC,North
2019-10-13T06:00:00Z,1570946400,2019,6,0,286.25,286.25,84.8652,134.8672,-999.00,-10.7,-999.0,no,yes,no,300234068210190,SVP,PRIC,MOSAiC,North
2019-10-13T07:00:02Z,1570950003,2019,7,0,286.2917,286.2917,84.8634,134.8408,-999.00,-10.9,-999.0,no,yes,no,300234068210190,SVP,PRIC,MOSAiC,North
2019-10-13T07:59:57Z,1570953597,2019,8,0,286.3333,286.3333,84.8616,134.8122,-999.00,-11.2,-999.0,no,yes,no,300234068210190,SVP,PRIC,MOSAiC,North
2019-10-13T09:00:00Z,1570957200,2019,9,0,286.375,286.375,84.8596,134.7802,-999.00,-11.6,-999.0,no,yes,no,300234068210190,SVP,PRIC,MOSAiC,North
2019-10-13T10:00:02Z,1570960803,2019,10,0,286.4167,286.4167,84.8576,134.7472,-999.00,-11.8,-999.0,no,yes,no,300234068210190,SVP,PRIC,MOSAiC,North
2019-10-13T10:59:57Z,1570964397,2019,11,0,286.4583,286.4583,84.8558,134.7168,-999.00,-12.1,-999.0,no,yes,no,300234068210190,SVP,PRIC,MOSAiC,North
2019-10-13T12:00:00Z,1570968000,2019,12,0,286.5,286.5,84.854,134.6932,-999.00,-12.3,-999.0,no,yes,no,300234068210190,SVP,PRIC,MOSAiC,North
2019-10-13T13:00:02Z,1570971603,2019,13,0,286.5417,286.5417,84.8522,134.6782,-999.00,-12.5,-999.0,no,yes,no,300234068210190,SVP,PRIC,MOSAiC,North
2019-10-13T13:59:57Z,1570975197,2019,14,0,286.5833,286.5833,84.85,134.6704,-999.00,-12.5,-999.0,no,yes,no,300234068210190,SVP,PRIC,MOSAiC,North
2019-10-13T15:00:00Z,1570978800,2019,15,0,286.625,286.625,84.8476,134.6738,-999.00,-12.5,-999.0,no,yes,no,300234068210190,SVP,PRIC,MOSAiC,North
2019-10-13T16:00:02Z,1570982403,2019,16,0,286.6667,286.6667,84.8448,134.6852,-999.00,-12.4,-999.0,no,yes,no,300234068210190,SVP,PRIC,MOSAiC,North
2019-10-13T16:59:57Z,1570985997,2019,17,0,286.7083,286.7083,84.8408,134.7002,-999.00,-12.3,-999.0,no,yes,no,300234068210190,SVP,PRIC,MOSAiC,North
2019-10-13T18:00:00Z,1570989600,2019,18,0,286.75,286.75,84.8354,134.7108,-999.00,-12.1,-999.0,no,yes,no,300234068210190,SVP,PRIC,MOSAiC,North
2019-10-13T19:00:02Z,1570993203,2019,19,0,286.7917,286.7917,84.8298,134.7112,-999.00,-11.8,-999.0,no,yes,no,300234068210190,SVP,PRIC,MOSAiC,North
2019-10-13T19:59:57Z,1570996797,2019,20,0,286.8333,286.8333,84.8244,134.6976,-999.00,-11.5,-999.0,no,yes,no,300234068210190,SVP,PRIC,MOSAiC,North
2019-10-13T21:00:00Z,1571000400,2019,21,0,286.875,286.875,84.8196,134.6726,-999.00,-11.0,-999.0,no,yes,no,300234068210190,SVP,PRIC,MOSAiC,North
2019-10-13T22:00:02Z,1571004003,2019,22,0,286.9167,286.9167,84.8148,134.64,-999.00,-10.6,-999.0,no,yes,no,300234068210190,SVP,PRIC,MOSAiC,North
2019-10-13T22:59:57Z,1571007597,2019,23,0,286.9583,286.9583,84.8104,134.5992,-999.00,-10.3,-999.0,no,yes,no,300234068210190,SVP,PRIC,MOSAiC,North
2019-10-14T00:00:00Z,1571011200,2019,0,0,287.0,287.0,84.8066,134.5586,-999.00,-10.0,-999.0,no,yes,no,300234068210190,SVP,PRIC,MOSAiC,North
2019-10-14T01:00:02Z,1571014803,2019,1,0,287.0417,287.0417,84.8034,134.5226,-999.00,-9.8,-999.0,no,yes,no,300234068210190,SVP,PRIC,MOSAiC,North
2019-10-14T01:59:57Z,1571018397,2019,2,0,287.0833,287.0833,84.8004,134.4938,-999.00,-9.7,-999.0,no,yes,no,300234068210190,SVP,PRIC,MOSAiC,North
2019-10-14T03:00:00Z,1571022000,2019,3,0,287.125,287.125,84.7974,134.4688,-999.00,-9.5,-999.0,no,yes,no,300234068210190,SVP,PRIC,MOSAiC,North
2019-10-14T04:00:02Z,1571025603,2019,4,0,287.1667,287.1667,84.7946,134.4488,-999.00,-9.5,-999.0,no,yes,no,300234068210190,SVP,PRIC,MOSAiC,North
2019-10-14T04:59:57Z,1571029197,2019,5,0,287.2083,287.2083,84.7918,134.4326,-999.00,-9.4,-999.0,no,yes,no,300234068210190,SVP,PRIC,MOSAiC,North
2019-10-14T06:00:00Z,1571032800,2019,6,0,287.25,287.25,84.789,134.4194,-999.00,-9.4,-999.0,no,yes,no,300234068210190,SVP,PRIC,MOSAiC,North
2019-10-14T07:00:02Z,1571036403,2019,7,0,287.2917,287.2917,84.786,134.4072,-999.00,-9.6,-999.0,no,yes,no,300234068210190,SVP,PRIC,MOSAiC,North
2019-10-14T07:59:57Z,1571039997,2019,8,0,287.3333,287.3333,84.7828,134.3942,-999.00,-9.6,-999.0,no,yes,no,300234068210190,SVP,PRIC,MOSAiC,North
2019-10-14T09:00:00Z,1571043600,2019,9,0,287.375,287.375,84.7794,134.377,-999.00,-9.7,-999.0,no,yes,no,300234068210190,SVP,PRIC,MOSAiC,North
2019-10-14T10:00:02Z,1571047203,2019,10,0,287.4167,287.4167,84.7762,134.3542,-999.00,-9.3,-999.0,no,yes,no,300234068210190,SVP,PRIC,MOSAiC,North
2019-10-14T10:59:57Z,1571050797,2019,11,0,287.4583,287.4583,84.7736,134.3276,-999.00,-9.0,-999.0,no,yes,no,300234068210190,SVP,PRIC,MOSAiC,North
2019-10-14T12:00:00Z,1571054400,2019,12,0,287.5,287.5,84.7718,134.2998,-999.00,-9.1,-999.0,no,yes,no,300234068210190,SVP,PRIC,MOSAiC,North
2019-10-14T13:00:02Z,1571058003,2019,13,0,287.5417,287.5417,84.7704,134.2746,-999.00,-9.4,-999.0,no,yes,no,300234068210190,SVP,PRIC,MOSAiC,North
2019-10-14T13:59:57Z,1571061597,2019,14,0,287.5833,287.5833,84.7696,134.2554,-999.00,-9.7,-999.0,no,yes,no,300234068210190,SVP,PRIC,MOSAiC,North
2019-10-14T15:00:00Z,1571065200,2019,15,0,287.625,287.625,84.769,134.244,-999.00,-10.1,-999.0,no,yes,no,300234068210190,SVP,PRIC,MOSAiC,North
2019-10-14T16:00:02Z,1571068803,2019,16,0,287.6667,287.6667,84.7686,134.2422,-999.00,-10.5,-999.0,no,yes,no,300234068210190,SVP,PRIC,MOSAiC,North
2019-10-14T16:59:57Z,1571072397,2019,17,0,287.7083,287.7083,84.768,134.2482,-999.00,-10.9,-999.0,no,yes,no,300234068210190,SVP,PRIC,MOSAiC,North
2019-10-14T18:00:00Z,1571076000,2019,18,0,287.75,287.75,84.7674,134.2592,-999.00,-11.3,-999.0,no,yes,no,300234068210190,SVP,PRIC,MOSAiC,North
2019-10-14T19:00:02Z,1571079603,2019,19,0,287.7917,287.7917,84.7664,134.2712,-999.00,-11.5,-999.0,no,yes,no,300234068210190,SVP,PRIC,MOSAiC,North
2019-10-14T19:59:57Z,1571083197,2019,20,0,287.8333,287.8333,84.7654,134.2804,-999.00,-11.8,-999.0,no,yes,no,300234068210190,SVP,PRIC,MOSAiC,North
2019-10-14T21:00:00Z,1571086800,2019,21,0,287.875,287.875,84.7644,134.2838,-999.00,-12.0,-999.0,no,yes,no,300234068210190,SVP,PRIC,MOSAiC,North
2019-10-14T22:00:02Z,1571090403,2019,22,0,287.9167,287.9167,84.7638,134.2798,-999.00,-12.0,-999.0,no,yes,no,300234068210190,SVP,PRIC,MOSAiC,North
2019-10-14T22:59:57Z,1571093997,2019,23,0,287.9583,287.9583,84.7634,134.2686,-999.00,-12.1,-999.0,no,yes,no,300234068210190,SVP,PRIC,MOSAiC,North
2019-10-15T00:00:00Z,1571097600,2019,0,0,288.0,288.0,84.7638,134.254,-999.00,-12.1,-999.0,no,yes,no,300234068210190,SVP,PRIC,MOSAiC,North
2019-10-15T01:00:02Z,1571101203,2019,1,0,288.0417,288.0417,84.7644,134.2394,-999.00,-12.3,-999.0,no,yes,no,300234068210190,SVP,PRIC,MOSAiC,North
2019-10-15T01:59:57Z,1571104797,2019,2,0,288.0833,288.0833,84.7656,134.228,-999.00,-12.3,-999.0,no,yes,no,300234068210190,SVP,PRIC,MOSAiC,North
2019-10-15T03:00:00Z,1571108400,2019,3,0,288.125,288.125,84.7668,134.2216,-999.00,-12.3,-999.0,no,yes,no,300234068210190,SVP,PRIC,MOSAiC,North
2019-10-15T04:00:02Z,1571112003,2019,4,0,288.1667,288.1667,84.768,134.2216,-999.00,-12.5,-999.0,no,yes,no,300234068210190,SVP,PRIC,MOSAiC,North
2019-10-15T04:59:57Z,1571115597,2019,5,0,288.2083,288.2083,84.769,134.2256,-999.00,-12.5,-999.0,no,yes,no,300234068210190,SVP,PRIC,MOSAiC,North
2019-10-15T06:00:00Z,1571119200,2019,6,0,288.25,288.25,84.7696,134.23,-999.00,-12.5,-999.0,no,yes,no,300234068210190,SVP,PRIC,MOSAiC,North
2019-10-15T07:00:02Z,1571122803,2019,7,0,288.2917,288.2917,84.7696,134.233,-999.00,-12.9,-999.0,no,yes,no,300234068210190,SVP,PRIC,MOSAiC,North
2019-10-15T07:59:57Z,1571126397,2019,8,0,288.3333,288.3333,84.7696,134.2302,-999.00,-13.1,-999.0,no,yes,no,300234068210190,SVP,PRIC,MOSAiC,North
2019-10-15T09:00:00Z,1571130000,2019,9,0,288.375,288.375,84.7692,134.2202,-999.00,-13.3,-999.0,no,yes,no,300234068210190,SVP,PRIC,MOSAiC,North
2019-10-15T10:00:02Z,1571133603,2019,10,0,288.4167,288.4167,84.769,134.2026,-999.00,-13.6,-999.0,no,yes,no,300234068210190,SVP,PRIC,MOSAiC,North
2019-10-15T10:59:57Z,1571137197,2019,11,0,288.4583,288.4583,84.769,134.1788,-999.00,-13.7,-999.0,no,yes,no,300234068210190,SVP,PRIC,MOSAiC,North
2019-10-15T12:00:00Z,1571140800,2019,12,0,288.5,288.5,84.7694,134.152,-999.00,-14.0,-999.0,no,yes,no,300234068210190,SVP,PRIC,MOSAiC,North
2019-10-15T13:00:02Z,1571144403,2019,13,0,288.5417,288.5417,84.77,134.1252,-999.00,-14.1,-999.0,no,yes,no,300234068210190,SVP,PRIC,MOSAiC,North
2019-10-15T13:59:57Z,1571147997,2019,14,0,288.5833,288.5833,84.771,134.1024,-999.00,-14.1,-999.0,no,yes,no,300234068210190,SVP,PRIC,MOSAiC,North
2019-10-15T15:00:00Z,1571151600,2019,15,0,288.625,288.625,84.7722,134.0852,-999.00,-14.1,-999.0,no,yes,no,300234068210190,SVP,PRIC,MOSAiC,North
2019-10-15T16:00:02Z,1571155203,2019,16,0,288.6667,288.6667,84.773,134.0738,-999.00,-14.0,-999.0,no,yes,no,300234068210190,SVP,PRIC,MOSAiC,North
2019-10-15T16:59:57Z,1571158797,2019,17,0,288.7083,288.7083,84.7736,134.0658,-999.00,-13.7,-999.0,no,yes,no,300234068210190,SVP,PRIC,MOSAiC,North
2019-10-15T18:00:00Z,1571162400,2019,18,0,288.75,288.75,84.7736,134.0558,-999.00,-13.2,-999.0,no,yes,no,300234068210190,SVP,PRIC,MOSAiC,North
2019-10-15T19:00:02Z,1571166003,2019,19,0,288.7917,288.7917,84.773,134.0368,-999.00,-12.8,-999.0,no,yes,no,300234068210190,SVP,PRIC,MOSAiC,North
2019-10-15T19:59:57Z,1571169597,2019,20,0,288.8333,288.8333,84.772,134.0102,-999.00,-12.3,-999.0,no,yes,no,300234068210190,SVP,PRIC,MOSAiC,North
2019-10-15T21:00:00Z,1571173200,2019,21,0,288.875,288.875,84.7716,133.9754,-999.00,-11.9,-999.0,no,yes,no,300234068210190,SVP,PRIC,MOSAiC,North
2019-10-15T22:00:02Z,1571176803,2019,22,0,288.9167,288.9167,84.7708,133.9256,-999.00,-11.5,-999.0,no,yes,no,300234068210190,SVP,PRIC,MOSAiC,North
2019-10-15T22:59:57Z,1571180397,2019,23,0,288.9583,288.9583,84.7704,133.8652,-999.00,-11.0,-999.0,no,yes,no,300234068210190,SVP,PRIC,MOSAiC,North
2019-10-16T00:00:00Z,1571184000,2019,0,0,289.0,289.0,84.7704,133.805,-999.00,-10.7,-999.0,no,yes,no,300234068210190,SVP,PRIC,MOSAiC,North
2019-10-16T01:00:02Z,1571187603,2019,1,0,289.0417,289.0417,84.771,133.7484,-999.00,-10.5,-999.0,no,yes,no,300234068210190,SVP,PRIC,MOSAiC,North
2019-10-16T01:59:57Z,1571191197,2019,2,0,289.0833,289.0833,84.7718,133.699,-999.00,-10.3,-999.0,no,yes,no,300234068210190,SVP,PRIC,MOSAiC,North